Погода в Верхнесоленом

Россия / Ростовская область     47°14′15″N   40°49′09″E
темп.,
°C
ветер,
м/с
пор.,
м/с
влажн.,
%
обл.,
%
осадки,
мм/ч
давл.,
гПа
погр.,
м
18 мая, вт
вт1800:00+16з4119268 2.2 1008343
03:00+16зюз51093100 2.9 1008444
06:00+15з489899 4.4 1008361
09:00+16юз5690100 4.6 1009509
12:00+19зюз6877100 0.1 1009884
15:00+20зюз5772100 0.8 1009995
18:00+20юз35710 0.8 1009408
21:00+15ю348492 1.0 101061
19 мая, ср
ср1900:00+15юв3588100 0.0 100981
03:00+15ююв2487100 0.0 100979
06:00+15вюв3590100 0.0 1008153
09:00+15ююв4998100 16.3 1008362
12:00+14юз91495100 7.0 1010874
15:00+18юз7117398 11.6 10111498
18:00+16юз712835 2.0 10111036
21:00+13ююз61389100 2.3 1012567
20 мая, чт
чт2000:00+14ююз81589100 0.4 1012888
03:00+13юз8158796 0.4 1012735
06:00+13юз814888 0.0 1013713
09:00+17зюз81272100 0.0 10141002
12:00+21юз786135 0.0 10141703
15:00+22юз57545 0.0 10141841
18:00+21зюз246697 0.0 1014233
21:00+16ююв22805 0.0 101413
21 мая, пт
пт2100:00+14в1178100 0.0 101411
03:00+14в347899 0.0 101463
06:00+14всв48825 0.0 1014179
09:00+20в69647 0.0 1014536
12:00+24вюв71057100 0.0 1012894
15:00+26вюв7115746 0.0 10111171
18:00+25в5116698 0.0 1009377
21:00+22вюв7175599 0.0 1009500
22 мая, сб
сб2200:00+19вюв614552 0.0 1009426
03:00+16вюв614640 0.0 1008390
06:00+16в616747 0.0 1008450
09:00+22юв61264100 0.0 1008721
12:00+25юв6759100 0.0 1009976
15:00+25в4868100 0.0 1008613
18:00+27вюв1269100 0.0 1008140
21:00+21ссв3385100 0.0 100943